| time (UTC) | temp F | wind direction | speed knots | gust knots | rain 1hr in | rain 24hr in | rain mn in | humidity % | barometer mb |
| 20260905133520 | 89 | 293 | 13.0 | 21.7 | 0.00 | 0.00 | 0.00 | 41 | 1010.5 |
| 20260905132522 | 90 | 277 | 17.4 | 24.3 | 0.00 | 0.00 | 0.00 | 39 | 1010.3 |
| 20260905131520 | 91 | 261 | 17.4 | 24.3 | 0.00 | 0.00 | 0.00 | 38 | 1010.2 |
| 20260905130522 | 91 | 274 | 15.6 | 22.6 | 0.00 | 0.00 | 0.00 | 39 | 1010.2 |
| 20260905125520 | 89 | 259 | 12.2 | 17.4 | 0.00 | 0.00 | 0.00 | 39 | 1010.4 |
| 20260905124521 | 89 | 245 | 14.8 | 26.1 | 0.00 | 0.00 | 0.00 | 39 | 1010.5 |
| 20260905123519 | 91 | 245 | 21.7 | 31.3 | 0.00 | 0.00 | 0.00 | 38 | 1010.5 |
| 20260905122541 | 91 | 225 | 22.6 | 28.7 | 0.00 | 0.00 | 0.00 | 38 | 1010.7 |
| 20260905121519 | 90 | 223 | 23.5 | 33.0 | 0.00 | 0.00 | 0.00 | 38 | 1010.7 |
| 20260905120521 | 92 | 214 | 19.1 | 29.5 | 0.00 | 0.00 | 0.00 | 37 | 1010.9 |
| 20260905115519 | 91 | 221 | 17.4 | 24.3 | 0.00 | 0.00 | 0.00 | 39 | 1010.9 |
| 20260905114520 | 90 | 212 | 10.4 | 21.7 | 0.00 | 0.00 | 0.00 | 40 | 1011.0 |
| 20260905113516 | 89 | 214 | 13.0 | 20.0 | 0.00 | 0.00 | 0.00 | 42 | 1011.1 |
| 20260905112521 | 87 | 198 | 11.3 | 14.8 | 0.00 | 0.00 | 0.00 | 43 | 1011.2 |
| 20260905111520 | 88 | 215 | 14.8 | 22.6 | 0.00 | 0.00 | 0.00 | 42 | 1011.3 |
| 20260905110542 | 87 | 211 | 14.8 | 19.1 | 0.00 | 0.00 | 0.00 | 44 | 1011.2 |
| 20260905105519 | 87 | 208 | 22.6 | 30.4 | 0.00 | 0.00 | 0.00 | 42 | 1011.1 |
| 20260905104541 | 87 | 190 | 15.6 | 24.3 | 0.00 | 0.00 | 0.00 | 43 | 1011.2 |
| 20260905103520 | 87 | 217 | 20.0 | 26.9 | 0.00 | 0.00 | 0.00 | 43 | 1011.3 |
| 20260905102517 | 87 | 229 | 20.9 | 26.9 | 0.00 | 0.00 | 0.00 | 44 | 1011.4 |
| 20260905101520 | 86 | 220 | 22.6 | 38.2 | 0.00 | 0.00 | 0.00 | 43 | 1011.6 |
| 20260905100516 | 87 | 200 | 31.3 | 41.7 | 0.00 | 0.00 | 0.00 | 42 | 1011.5 |
| 20260905095521 | 87 | 214 | 23.5 | 33.0 | 0.00 | 0.00 | 0.00 | 42 | 1011.6 |
| 20260905094541 | 88 | 232 | 20.0 | 27.8 | 0.00 | 0.00 | 0.00 | 42 | 1011.6 |
| 20260905093519 | 88 | 219 | 24.3 | 36.5 | 0.00 | 0.00 | 0.00 | 42 | 1011.7 |
| 20260905092520 | 86 | 198 | 22.6 | 33.9 | 0.00 | 0.00 | 0.00 | 43 | 1011.7 |
| 20260905085536 | 86 | 202 | 25.2 | 39.1 | 0.00 | 0.00 | 0.00 | 45 | 1012.1 |
| 20260905084518 | 85 | 202 | 25.2 | 41.7 | 0.00 | 0.00 | 0.00 | 46 | 1012.1 |
| 20260905083537 | 84 | 198 | 29.5 | 43.4 | 0.00 | 0.00 | 0.00 | 46 | 1012.2 |
| 20260905082522 | 83 | 204 | 26.1 | 31.3 | 0.00 | 0.00 | 0.00 | 48 | 1012.3 |
| 20260905081519 | 83 | 200 | 24.3 | 33.0 | 0.00 | 0.00 | 0.00 | 48 | 1012.4 |
| 20260905080517 | 82 | 196 | 20.9 | 29.5 | 0.00 | 0.00 | 0.00 | 50 | 1012.5 |
| 20260905075520 | 81 | 206 | 26.1 | 37.4 | 0.00 | 0.00 | 0.00 | 50 | 1012.7 |
| 20260905074517 | 81 | 199 | 27.8 | 38.2 | 0.00 | 0.00 | 0.00 | 50 | 1012.7 |
| 20260905073516 | 80 | 204 | 27.8 | 35.6 | 0.00 | 0.00 | 0.00 | 51 | 1012.8 |
| 20260905072517 | 80 | 188 | 26.9 | 36.5 | 0.00 | 0.00 | 0.00 | 51 | 1012.9 |
| 20260905071537 | 79 | 204 | 24.3 | 37.4 | 0.00 | 0.00 | 0.00 | 53 | 1012.9 |
| 20260905070518 | 78 | 204 | 24.3 | 31.3 | 0.00 | 0.00 | 0.00 | 54 | 1012.9 |
| 20260905065518 | 78 | 188 | 23.5 | 32.2 | 0.00 | 0.00 | 0.00 | 55 | 1013.0 |
| 20260905064520 | 77 | 199 | 24.3 | 36.5 | 0.00 | 0.00 | 0.00 | 56 | 1013.1 |
| 20260905063516 | 75 | 197 | 26.9 | 32.2 | 0.00 | 0.00 | 0.00 | 58 | 1013.1 |
| 20260905062540 | 75 | 199 | 23.5 | 34.8 | 0.00 | 0.00 | 0.00 | 60 | 1013.0 |
| 20260905061516 | 74 | 210 | 22.6 | 28.7 | 0.00 | 0.00 | 0.00 | 61 | 1013.1 |
| 20260905060536 | 73 | 197 | 21.7 | 28.7 | 0.00 | 0.00 | 0.00 | 61 | 1013.1 |
| 20260905055537 | 72 | 201 | 12.2 | 19.1 | 0.00 | 0.00 | 0.00 | 62 | 1013.1 |
| 20260905054516 | 71 | 202 | 8.7 | 15.6 | 0.00 | 0.00 | 0.00 | 63 | 1013.2 |
| 20260905053517 | 71 | 188 | 10.4 | 14.8 | 0.00 | 0.00 | 0.00 | 64 | 1013.2 |
| 20260905052521 | 71 | 166 | 7.8 | 13.0 | 0.00 | 0.00 | 0.00 | 64 | 1013.2 |
| 20260905051517 | 70 | 161 | 5.2 | 8.7 | 0.00 | 0.00 | 0.00 | 65 | 1013.1 |
| 20260905050517 | 69 | 161 | 8.7 | 11.3 | 0.00 | 0.00 | 0.00 | 65 | 1013.1 |
| 20260905045517 | 68 | 190 | 9.6 | 14.8 | 0.00 | 0.00 | 0.00 | 65 | 1013.2 |
| 20260905044517 | 68 | 181 | 9.6 | 14.8 | 0.00 | 0.00 | 0.00 | 66 | 1013.1 |
| 20260905043517 | 67 | 180 | 13.9 | 17.4 | 0.00 | 0.00 | 0.00 | 67 | 1013.2 |
| 20260905042517 | 66 | 178 | 12.2 | 14.8 | 0.00 | 0.00 | 0.00 | 67 | 1013.1 |
| 20260905041559 | 66 | 189 | 7.8 | 10.4 | 0.00 | 0.00 | 0.00 | 69 | 1013.0 |
| 20260905040517 | 65 | 186 | 4.3 | 6.1 | 0.00 | 0.00 | 0.00 | 70 | 1012.9 |
| 20260905035519 | 64 | 167 | 4.3 | 7.8 | 0.00 | 0.00 | 0.00 | 72 | 1012.9 |
| 20260905034539 | 64 | 116 | 1.7 | 5.2 | 0.00 | 0.00 | 0.00 | 72 | 1012.8 |
| 20260905033519 | 64 | 175 | 6.1 | 7.8 | 0.00 | 0.00 | 0.00 | 72 | 1012.8 |
| 20260905032537 | 64 | 181 | 6.1 | 8.7 | 0.00 | 0.00 | 0.00 | 72 | 1012.9 |
| 20260905031516 | 64 | 208 | 3.5 | 6.1 | 0.00 | 0.00 | 0.00 | 71 | 1012.9 |
| 20260905030537 | 65 | 262 | 5.2 | 7.8 | 0.00 | 0.00 | 0.00 | 71 | 1012.9 |
| 20260905025517 | 64 | 212 | 7.0 | 9.6 | 0.00 | 0.00 | 0.00 | 72 | 1013.0 |
| 20260905024517 | 64 | 238 | 2.6 | 5.2 | 0.00 | 0.00 | 0.00 | 72 | 1013.0 |
| 20260905023557 | 64 | 245 | 3.5 | 7.8 | 0.00 | 0.00 | 0.00 | 73 | 1013.1 |
| 20260905022517 | 64 | 178 | 7.8 | 10.4 | 0.00 | 0.00 | 0.00 | 73 | 1013.0 |
| 20260905021537 | 64 | 174 | 6.1 | 9.6 | 0.00 | 0.00 | 0.00 | 74 | 1013.0 |
| 20260905020521 | 64 | 167 | 4.3 | 7.8 | 0.00 | 0.00 | 0.00 | 74 | 1013.0 |
| 20260905015519 | 64 | 167 | 5.2 | 9.6 | 0.00 | 0.00 | 0.00 | 74 | 1013.0 |
| 20260905014517 | 64 | 198 | 6.1 | 8.7 | 0.00 | 0.00 | 0.00 | 74 | 1013.0 |
| 20260905013517 | 64 | 185 | 9.6 | 13.0 | 0.00 | 0.00 | 0.00 | 76 | 1013.1 |
| 20260905012517 | 64 | 179 | 6.1 | 9.6 | 0.00 | 0.00 | 0.00 | 77 | 1013.2 |
| 20260905011518 | 64 | 179 | 4.3 | 6.1 | 0.00 | 0.00 | 0.00 | 77 | 1013.1 |
| 20260905010518 | 64 | 166 | 6.1 | 9.6 | 0.00 | 0.00 | 0.00 | 77 | 1013.2 |
| 20260905005518 | 65 | 151 | 5.2 | 12.2 | 0.00 | 0.00 | 0.00 | 76 | 1013.2 |
| 20260905004516 | 65 | 150 | 5.2 | 6.1 | 0.00 | 0.00 | 0.00 | 76 | 1013.2 |
| 20260905003537 | 65 | 172 | 6.1 | 7.8 | 0.00 | 0.00 | 0.00 | 76 | 1013.2 |
| 20260905002521 | 65 | 184 | 6.1 | 9.6 | 0.00 | 0.00 | 0.00 | 76 | 1013.3 |
| 20260905001537 | 65 | 207 | 2.6 | 4.3 | 0.00 | 0.00 | 0.00 | 77 | 1013.3 |
| 20260905000539 | 65 | 183 | 3.5 | 4.3 | 0.00 | 0.00 | 0.00 | 77 | 1013.3 |
| 20260904235517 | 65 | 199 | 0.9 | 3.5 | 0.00 | 0.00 | 0.00 | 77 | 1013.4 |
| 20260904234517 | 65 | 179 | 5.2 | 6.1 | 0.00 | 0.00 | 0.00 | 77 | 1013.3 |
| 20260904233517 | 66 | 219 | 5.2 | 7.8 | 0.00 | 0.00 | 0.00 | 76 | 1013.2 |
| 20260904232521 | 66 | 253 | 2.6 | 4.3 | 0.00 | 0.00 | 0.00 | 76 | 1013.1 |
| 20260904231517 | 67 | 201 | 2.6 | 5.2 | 0.00 | 0.00 | 0.00 | 75 | 1013.2 |
| 20260904230517 | 67 | 209 | 5.2 | 7.8 | 0.00 | 0.00 | 0.00 | 74 | 1013.4 |
| 20260904225518 | 67 | 268 | 2.6 | 5.2 | 0.00 | 0.00 | 0.00 | 74 | 1013.5 |
| 20260904224537 | 67 | 278 | 4.3 | 6.1 | 0.00 | 0.00 | 0.00 | 74 | 1013.5 |
| 20260904223517 | 67 | 239 | 5.2 | 7.0 | 0.00 | 0.00 | 0.00 | 74 | 1013.5 |
| 20260904222522 | 68 | 251 | 3.5 | 5.2 | 0.00 | 0.00 | 0.00 | 73 | 1013.5 |
| 20260904221538 | 69 | 223 | 7.8 | 9.6 | 0.00 | 0.00 | 0.00 | 71 | 1013.3 |
| 20260904220518 | 69 | 252 | 6.1 | 7.8 | 0.00 | 0.00 | 0.00 | 72 | 1013.5 |
| 20260904215518 | 68 | 250 | 5.2 | 7.0 | 0.00 | 0.00 | 0.00 | 72 | 1013.5 |
| 20260904214517 | 68 | 265 | 4.3 | 6.1 | 0.00 | 0.00 | 0.00 | 72 | 1013.6 |
| 20260904213518 | 68 | 258 | 5.2 | 7.0 | 0.00 | 0.00 | 0.00 | 72 | 1013.7 |
| 20260904212521 | 69 | 228 | 7.0 | 8.7 | 0.00 | 0.00 | 0.00 | 71 | 1013.6 |
| 20260904211518 | 69 | 227 | 4.3 | 7.0 | 0.00 | 0.00 | 0.00 | 71 | 1013.7 |
| 20260904210517 | 69 | 189 | 5.2 | 7.8 | 0.00 | 0.00 | 0.00 | 70 | 1013.6 |
| 20260904205518 | 70 | 184 | 4.3 | 6.1 | 0.00 | 0.00 | 0.00 | 69 | 1013.5 |
| 20260904204517 | 71 | 151 | 4.3 | 6.1 | 0.00 | 0.00 | 0.00 | 67 | 1013.5 |
| 20260904203517 | 71 | 172 | 2.6 | 6.1 | 0.00 | 0.00 | 0.00 | 67 | 1013.6 |
| 20260904202517 | 71 | 240 | 0.9 | 4.3 | 0.00 | 0.00 | 0.00 | 66 | 1013.6 |
| 20260904201538 | 71 | 28 | 0.0 | 2.6 | 0.00 | 0.00 | 0.00 | 66 | 1013.5 |
| 20260904200538 | 71 | 245 | 0.9 | 6.1 | 0.00 | 0.00 | 0.00 | 66 | 1013.5 |
| 20260904195540 | 71 | 0.0 | 0.0 | 0.00 | 0.00 | 0.00 | 66 | 1013.5 | |
| 20260904194518 | 72 | 157 | 0.9 | 3.5 | 0.00 | 0.00 | 0.00 | 65 | 1013.5 |
| 20260904193518 | 72 | 164 | 4.3 | 6.1 | 0.00 | 0.00 | 0.00 | 64 | 1013.5 |
| 20260904192519 | 72 | 164 | 3.5 | 4.3 | 0.00 | 0.00 | 0.00 | 63 | 1013.5 |
| 20260904191518 | 72 | 207 | 0.9 | 3.5 | 0.00 | 0.00 | 0.00 | 63 | 1013.4 |
| 20260904190519 | 73 | 166 | 0.9 | 2.6 | 0.00 | 0.00 | 0.00 | 63 | 1013.6 |
| 20260904185537 | 72 | 155 | 4.3 | 7.8 | 0.00 | 0.00 | 0.00 | 63 | 1013.6 |
| 20260904184518 | 72 | 145 | 0.9 | 4.3 | 0.00 | 0.00 | 0.00 | 66 | 1013.7 |
| 20260904183516 | 72 | 0.0 | 0.0 | 0.00 | 0.00 | 0.00 | 66 | 1013.7 | |
| 20260904182517 | 73 | 251 | 0.0 | 2.6 | 0.00 | 0.00 | 0.00 | 65 | 1013.7 |
| 20260904181517 | 73 | 127 | 2.6 | 5.2 | 0.00 | 0.00 | 0.00 | 65 | 1013.7 |
| 20260904180522 | 73 | 26 | 0.9 | 2.6 | 0.00 | 0.00 | 0.00 | 65 | 1013.6 |
| 20260904175517 | 73 | 115 | 4.3 | 6.1 | 0.00 | 0.00 | 0.00 | 65 | 1013.6 |
| 20260904174537 | 74 | 195 | 0.0 | 2.6 | 0.00 | 0.00 | 0.00 | 63 | 1013.6 |
| 20260904173518 | 73 | 110 | 2.6 | 4.3 | 0.00 | 0.00 | 0.00 | 65 | 1013.5 |
| 20260904172518 | 74 | 27 | 0.9 | 4.3 | 0.00 | 0.00 | 0.00 | 65 | 1013.4 |
| 20260904171557 | 74 | 85 | 0.0 | 2.6 | 0.00 | 0.00 | 0.00 | 63 | 1013.3 |
| 20260904170518 | 75 | 337 | 0.9 | 7.0 | 0.00 | 0.00 | 0.00 | 61 | 1013.1 |
| 20260904165517 | 76 | 0.0 | 0.0 | 0.00 | 0.00 | 0.00 | 61 | 1013.0 | |
| 20260904164518 | 77 | 12 | 0.9 | 3.5 | 0.00 | 0.00 | 0.00 | 58 | 1013.0 |
| 20260904163517 | 78 | 19 | 0.0 | 2.6 | 0.00 | 0.00 | 0.00 | 56 | 1013.1 |
| 20260904162519 | 79 | 226 | 0.9 | 4.3 | 0.00 | 0.00 | 0.00 | 53 | 1013.2 |
| 20260904161517 | 80 | 218 | 2.6 | 5.2 | 0.00 | 0.00 | 0.00 | 51 | 1013.1 |
| 20260904160518 | 79 | 278 | 1.7 | 4.3 | 0.00 | 0.00 | 0.00 | 52 | 1013.3 |
| 20260904155518 | 79 | 257 | 0.9 | 3.5 | 0.00 | 0.00 | 0.00 | 53 | 1013.3 |
| 20260904154519 | 77 | 163 | 4.3 | 7.0 | 0.00 | 0.00 | 0.00 | 53 | 1013.4 |
| 20260904153517 | 76 | 134 | 5.2 | 9.6 | 0.00 | 0.00 | 0.00 | 56 | 1013.4 |
| 20260904152519 | 77 | 213 | 17.4 | 28.7 | 0.00 | 0.00 | 0.00 | 55 | 1013.5 |
| 20260904151517 | 80 | 219 | 7.8 | 12.2 | 0.00 | 0.00 | 0.00 | 48 | 1013.3 |
| 20260904150518 | 80 | 289 | 3.5 | 7.0 | 0.00 | 0.00 | 0.00 | 46 | 1013.4 |
| 20260904145518 | 81 | 337 | 4.3 | 7.0 | 0.00 | 0.00 | 0.00 | 45 | 1013.4 |
| 20260904144518 | 81 | 321 | 3.5 | 6.1 | 0.00 | 0.00 | 0.00 | 44 | 1013.3 |
| 20260904143538 | 81 | 315 | 4.3 | 6.1 | 0.00 | 0.00 | 0.00 | 45 | 1013.3 |
| 20260904142518 | 81 | 351 | 4.3 | 6.1 | 0.00 | 0.00 | 0.00 | 44 | 1013.3 |
| 20260904141518 | 82 | 333 | 6.1 | 9.6 | 0.00 | 0.00 | 0.00 | 43 | 1013.3 |
| 20260904140519 | 83 | 313 | 3.5 | 7.8 | 0.00 | 0.00 | 0.00 | 43 | 1013.4 |
| 20260904135537 | 82 | 172 | 3.5 | 7.0 | 0.00 | 0.00 | 0.00 | 42 | 1013.5 |
| 20260904134538 | 82 | 263 | 5.2 | 7.8 | 0.00 | 0.00 | 0.00 | 43 | 1013.5 |